Location: Almena City Lake
(39.8850°N, 99.6804°W)
Time: 23:00:20
(UTC+00:00)

Cosmos 1833 Rocket - Pass Details

Date: 18 February 2020
Orbit: 832 x 840 km, 71.0° (Epoch: 05 April)

Event Time Altitude Azimuth Distance (km) Brightness Sun altitude
Rises 01:10:27 0° 330° (NNW) 3,401 6.2 -11.0°
Reaches altitude 10° 01:13:00 10° 324° (NW) 2,462 5.5 -11.4°
Maximum altitude 01:18:19 44° 254° (WSW) 1,141 4.0 -12.5°
Drops below altitude 10° 01:23:37 10° 183° (S) 2,443 5.2 -13.5°
Sets 01:26:08 0° 177° (S) 3,372 5.9 -13.9°
